Location: Mauries
(43.6188°N, 0.3322°W)
Time: 18:58:22
(UTC+00:00)

SL-8 Rocket - Pass Details

Date: 14 January 2026
Orbit: 955 x 990 km, 82.9° (Epoch: 10 February)

Event Time Altitude Azimuth Distance (km) Brightness Sun altitude
Rises 06:46:48 0° 186° (S) 3,687 7.2 -8.3°
Reaches altitude 10° 06:49:18 10° 186° (S) 2,742 6.6 -7.8°
Maximum altitude 06:55:37 89° 275° (W) 993 4.1 -6.8°
Drops below altitude 10° 07:01:56 10° 8° (N) 2,745 6.2 -5.7°
Sets 07:04:27 0° 8° (N) 3,693 6.9 -5.3°
